Year,Month,Day,Hour,Minute,Value (Times are PST for temperature in C)
2008,09,30,00,00,10.30
2008,09,30,00,01,10.30
2008,09,30,00,02,10.30
2008,09,30,00,03,10.30
2008,09,30,00,04,10.20
2008,09,30,00,05,10.20
2008,09,30,00,06,10.20
2008,09,30,00,07,10.20
2008,09,30,00,08,10.20
2008,09,30,00,09,10.20
2008,09,30,00,10,10.20
2008,09,30,00,11,10.20
2008,09,30,00,12,10.10
2008,09,30,00,13,10.10
2008,09,30,00,14,10.10
2008,09,30,00,15,10.10
2008,09,30,00,16,10.10
2008,09,30,00,17,10.10
2008,09,30,00,18,10.10
2008,09,30,00,19,10.10
2008,09,30,00,20,10.10
2008,09,30,00,21,10.10
2008,09,30,00,22,10.10
2008,09,30,00,23,10.10
2008,09,30,00,24,10.10
2008,09,30,00,25,10.10
2008,09,30,00,26,10.10
2008,09,30,00,27,10.10
2008,09,30,00,28,10.10
2008,09,30,00,29,10.00
2008,09,30,00,30,10.00
2008,09,30,00,31,10.00
2008,09,30,00,32,9.90
2008,09,30,00,33,9.90
2008,09,30,00,34,9.90
2008,09,30,00,35,9.90
2008,09,30,00,36,9.90
2008,09,30,00,37,9.90
2008,09,30,00,38,9.90
2008,09,30,00,39,9.90
2008,09,30,00,40,9.90
2008,09,30,00,41,9.90
2008,09,30,00,42,9.90
2008,09,30,00,43,9.90
2008,09,30,00,44,9.90
2008,09,30,00,45,9.90
2008,09,30,00,46,9.80
2008,09,30,00,47,9.80
2008,09,30,00,48,9.90
2008,09,30,00,49,9.90
2008,09,30,00,50,9.90
2008,09,30,00,51,9.90
2008,09,30,00,52,9.90
2008,09,30,00,53,9.90
2008,09,30,00,54,9.90
2008,09,30,00,55,9.90
2008,09,30,00,56,9.90
2008,09,30,00,57,9.90
2008,09,30,00,58,9.90
2008,09,30,00,59,9.90
2008,09,30,01,00,9.90
2008,09,30,01,01,9.90
2008,09,30,01,02,9.90
2008,09,30,01,03,9.90
2008,09,30,01,04,9.90
2008,09,30,01,05,9.90
2008,09,30,01,06,9.90
2008,09,30,01,07,9.90
2008,09,30,01,08,9.90
2008,09,30,01,09,9.90
2008,09,30,01,10,9.90
2008,09,30,01,11,9.90
2008,09,30,01,12,9.90
2008,09,30,01,13,10.00
2008,09,30,01,14,10.00
2008,09,30,01,15,10.00
2008,09,30,01,16,10.10
2008,09,30,01,17,10.20
2008,09,30,01,18,10.20
2008,09,30,01,19,10.30
2008,09,30,01,20,10.30
2008,09,30,01,21,10.30
2008,09,30,01,22,10.40
2008,09,30,01,23,10.50
2008,09,30,01,24,10.70
2008,09,30,01,25,10.80
2008,09,30,01,26,10.90
2008,09,30,01,27,11.00
2008,09,30,01,28,11.20
2008,09,30,01,29,11.30
2008,09,30,01,30,11.40
2008,09,30,01,31,11.60
2008,09,30,01,32,11.70
2008,09,30,01,33,11.80
2008,09,30,01,34,11.90
2008,09,30,01,35,12.20
2008,09,30,01,36,12.30
2008,09,30,01,37,12.60
2008,09,30,01,38,12.90
2008,09,30,01,39,13.10
2008,09,30,01,40,13.30
2008,09,30,01,41,13.50
2008,09,30,01,42,13.70
2008,09,30,01,43,13.80
2008,09,30,01,44,13.80
2008,09,30,01,45,13.90
2008,09,30,01,46,14.00
2008,09,30,01,47,14.10
2008,09,30,01,48,14.00
2008,09,30,01,49,14.00
2008,09,30,01,50,14.00
2008,09,30,01,51,14.00
2008,09,30,01,52,14.00
2008,09,30,01,53,13.90
2008,09,30,01,54,13.90
2008,09,30,01,55,13.90
2008,09,30,01,56,13.90
2008,09,30,01,57,13.80
2008,09,30,01,58,13.80
2008,09,30,01,59,13.70
2008,09,30,02,00,13.60
2008,09,30,02,01,13.60
2008,09,30,02,02,13.60
2008,09,30,02,03,13.50
2008,09,30,02,04,13.50
2008,09,30,02,05,13.40
2008,09,30,02,06,13.40
2008,09,30,02,07,13.40
2008,09,30,02,08,13.30
2008,09,30,02,09,13.30
2008,09,30,02,10,13.30
2008,09,30,02,11,13.30
2008,09,30,02,12,13.30
2008,09,30,02,13,13.40
2008,09,30,02,14,13.40
2008,09,30,02,15,13.40
2008,09,30,02,16,13.40
2008,09,30,02,17,13.40
2008,09,30,02,18,13.40
2008,09,30,02,19,13.50
2008,09,30,02,20,13.50
2008,09,30,02,21,13.50
2008,09,30,02,22,13.50
2008,09,30,02,23,13.50
2008,09,30,02,24,13.60
2008,09,30,02,25,13.60
2008,09,30,02,26,13.70
2008,09,30,02,27,13.70
2008,09,30,02,28,13.70
2008,09,30,02,29,13.80
2008,09,30,02,30,13.80
2008,09,30,02,31,13.80
2008,09,30,02,32,13.80
2008,09,30,02,33,13.80
2008,09,30,02,34,13.70
2008,09,30,02,35,13.70
2008,09,30,02,36,13.70
2008,09,30,02,37,13.70
2008,09,30,02,38,13.60
2008,09,30,02,39,13.50
2008,09,30,02,40,13.50
2008,09,30,02,41,13.40
2008,09,30,02,42,13.30
2008,09,30,02,43,13.30
2008,09,30,02,44,13.20
2008,09,30,02,45,13.10
2008,09,30,02,46,13.00
2008,09,30,02,47,12.90
2008,09,30,02,48,12.80
2008,09,30,02,49,12.80
2008,09,30,02,50,12.80
2008,09,30,02,51,12.70
2008,09,30,02,52,12.60
2008,09,30,02,53,12.60
2008,09,30,02,54,12.60
2008,09,30,02,55,12.50
2008,09,30,02,56,12.50
2008,09,30,02,57,12.40
2008,09,30,02,58,12.40
2008,09,30,02,59,12.40
2008,09,30,03,00,12.40
2008,09,30,03,01,12.30
2008,09,30,03,02,12.30
2008,09,30,03,03,12.30
2008,09,30,03,04,12.30
2008,09,30,03,05,12.30
2008,09,30,03,06,12.30
2008,09,30,03,07,12.30
2008,09,30,03,08,12.30
2008,09,30,03,09,12.30
2008,09,30,03,10,12.20
2008,09,30,03,11,12.20
2008,09,30,03,12,12.20
2008,09,30,03,13,12.20
2008,09,30,03,14,12.20
2008,09,30,03,15,12.20
2008,09,30,03,16,12.10
2008,09,30,03,17,12.10
2008,09,30,03,18,12.10
2008,09,30,03,19,12.10
2008,09,30,03,20,12.00
2008,09,30,03,21,12.00
2008,09,30,03,22,11.90
2008,09,30,03,23,11.90
2008,09,30,03,24,11.80
2008,09,30,03,25,11.80
2008,09,30,03,26,11.80
2008,09,30,03,27,11.70
2008,09,30,03,28,11.70
2008,09,30,03,29,11.70
2008,09,30,03,30,11.60
2008,09,30,03,31,11.60
2008,09,30,03,32,11.60
2008,09,30,03,33,11.50
2008,09,30,03,34,11.50
2008,09,30,03,35,11.40
2008,09,30,03,36,11.40
2008,09,30,03,37,11.30
2008,09,30,03,38,11.30
2008,09,30,03,39,11.30
2008,09,30,03,40,11.30
2008,09,30,03,41,11.20
2008,09,30,03,42,11.20
2008,09,30,03,43,11.20
2008,09,30,03,44,11.20
2008,09,30,03,45,11.20
2008,09,30,03,46,11.10
2008,09,30,03,47,11.10
2008,09,30,03,48,11.10
2008,09,30,03,49,11.10
2008,09,30,03,50,11.00
2008,09,30,03,51,11.00
2008,09,30,03,52,11.00
2008,09,30,03,53,11.00
2008,09,30,03,54,11.00
2008,09,30,03,55,11.00
2008,09,30,03,56,11.00
2008,09,30,03,57,11.00
2008,09,30,03,58,11.00
2008,09,30,03,59,11.00
2008,09,30,04,00,10.90
2008,09,30,04,01,10.90
2008,09,30,04,02,10.90
2008,09,30,04,03,10.90
2008,09,30,04,09,10.80
2008,09,30,04,10,10.80
2008,09,30,04,11,10.80
2008,09,30,04,12,10.80
2008,09,30,04,13,10.80
2008,09,30,04,14,10.70
2008,09,30,04,15,10.70
2008,09,30,04,16,10.70
2008,09,30,04,17,10.70
2008,09,30,04,18,10.70
2008,09,30,04,19,10.70
2008,09,30,04,20,10.70
2008,09,30,04,21,10.70
2008,09,30,04,22,10.60
2008,09,30,04,23,10.60
2008,09,30,04,24,10.60
2008,09,30,04,25,10.60
2008,09,30,04,26,10.50
2008,09,30,04,27,10.40
2008,09,30,04,28,10.40
2008,09,30,04,29,10.30
2008,09,30,04,30,10.30
2008,09,30,04,31,10.30
2008,09,30,04,32,10.30
2008,09,30,04,33,10.30
2008,09,30,04,34,10.30
2008,09,30,04,35,10.20
2008,09,30,04,36,10.20
2008,09,30,04,37,10.20
2008,09,30,04,38,10.20
2008,09,30,04,39,10.20
2008,09,30,04,40,10.20
2008,09,30,04,41,10.20
2008,09,30,04,42,10.20
2008,09,30,04,43,10.20
2008,09,30,04,44,10.20
2008,09,30,04,45,10.20
2008,09,30,04,46,10.20
2008,09,30,04,47,10.20
2008,09,30,04,48,10.20
2008,09,30,04,49,10.20
2008,09,30,04,50,10.20
2008,09,30,04,51,10.20
2008,09,30,04,52,10.20
2008,09,30,04,53,10.20
2008,09,30,04,54,10.20
2008,09,30,04,55,10.20
2008,09,30,04,56,10.20
2008,09,30,04,57,10.20
2008,09,30,04,58,10.20
2008,09,30,04,59,10.10
2008,09,30,05,00,10.10
2008,09,30,05,01,10.10
2008,09,30,05,02,10.10
2008,09,30,05,03,10.10
2008,09,30,05,04,10.00
2008,09,30,05,05,10.00
2008,09,30,05,06,10.00
2008,09,30,05,07,9.90
2008,09,30,05,08,9.90
2008,09,30,05,09,9.90
2008,09,30,05,10,9.90
2008,09,30,05,11,10.00
2008,09,30,05,12,10.00
2008,09,30,05,13,10.00
2008,09,30,05,14,10.10
2008,09,30,05,15,10.10
2008,09,30,05,16,10.10
2008,09,30,05,17,10.10
2008,09,30,05,18,10.10
2008,09,30,05,19,10.10
2008,09,30,05,20,10.00
2008,09,30,05,21,10.00
2008,09,30,05,22,9.90
2008,09,30,05,23,9.90
2008,09,30,05,24,9.90
2008,09,30,05,25,9.90
2008,09,30,05,26,9.80
2008,09,30,05,27,9.80
2008,09,30,05,28,9.80
2008,09,30,05,29,9.80
2008,09,30,05,30,9.70
2008,09,30,05,31,9.70
2008,09,30,05,32,9.70
2008,09,30,05,33,9.60
2008,09,30,05,34,9.60
2008,09,30,05,35,9.60
2008,09,30,05,36,9.60
2008,09,30,05,37,9.50
2008,09,30,05,38,9.50
2008,09,30,05,39,9.50
2008,09,30,05,40,9.40
2008,09,30,05,41,9.40
2008,09,30,05,42,9.40
2008,09,30,05,43,9.40
2008,09,30,05,44,9.40
2008,09,30,05,45,9.40
2008,09,30,05,46,9.40
2008,09,30,05,47,9.40
2008,09,30,05,48,9.40
2008,09,30,05,49,9.40
2008,09,30,05,50,9.40
2008,09,30,05,51,9.40
2008,09,30,05,52,9.40
2008,09,30,05,53,9.40
2008,09,30,05,54,9.40
2008,09,30,05,55,9.40
2008,09,30,05,56,9.40
2008,09,30,05,57,9.40
2008,09,30,05,58,9.40
2008,09,30,05,59,9.40
2008,09,30,06,00,9.40
2008,09,30,06,01,9.40
2008,09,30,06,02,9.30
2008,09,30,06,03,9.30
2008,09,30,06,04,9.30
2008,09,30,06,05,9.30
2008,09,30,06,06,9.30
2008,09,30,06,07,9.30
2008,09,30,06,08,9.30
2008,09,30,06,09,9.30
2008,09,30,06,10,9.30
2008,09,30,06,11,9.20
2008,09,30,06,12,9.20
2008,09,30,06,13,9.20
2008,09,30,06,14,9.20
2008,09,30,06,15,9.20
2008,09,30,06,16,9.20
2008,09,30,06,17,9.10
2008,09,30,06,18,9.20
2008,09,30,06,19,9.20
2008,09,30,06,20,9.20
2008,09,30,06,21,9.10
2008,09,30,06,22,9.10
2008,09,30,06,23,9.10
2008,09,30,06,24,9.10
2008,09,30,06,25,9.10
2008,09,30,06,26,9.10
2008,09,30,06,27,9.10
2008,09,30,06,28,9.00
2008,09,30,06,29,9.00
2008,09,30,06,30,9.00
2008,09,30,06,31,9.00
2008,09,30,06,32,9.00
2008,09,30,06,33,9.00
2008,09,30,06,34,9.00
2008,09,30,06,35,9.00
2008,09,30,06,36,9.00
2008,09,30,06,37,9.00
2008,09,30,06,38,8.90
2008,09,30,06,39,8.90
2008,09,30,06,40,8.90
2008,09,30,06,41,8.90
2008,09,30,06,42,8.90
2008,09,30,06,43,8.90
2008,09,30,06,44,8.90
2008,09,30,06,45,8.90
2008,09,30,06,46,8.90
2008,09,30,06,47,8.90
2008,09,30,06,48,8.90
2008,09,30,06,49,8.90
2008,09,30,06,50,8.90
2008,09,30,06,51,8.90
2008,09,30,06,52,8.90
2008,09,30,06,53,8.90
2008,09,30,06,54,8.90
2008,09,30,06,55,8.90
2008,09,30,06,56,8.90
2008,09,30,06,57,8.90
2008,09,30,06,58,8.90
2008,09,30,06,59,8.90
2008,09,30,07,00,8.90
2008,09,30,07,01,8.90
2008,09,30,07,02,8.90
2008,09,30,07,03,8.90
2008,09,30,07,04,8.90
2008,09,30,07,05,8.90
2008,09,30,07,06,8.90
2008,09,30,07,07,8.90
2008,09,30,07,08,8.90
2008,09,30,07,09,8.80
2008,09,30,07,10,8.80
2008,09,30,07,11,8.80
2008,09,30,07,12,8.80
2008,09,30,07,13,8.80
2008,09,30,07,14,8.80
2008,09,30,07,15,8.80
2008,09,30,07,16,8.80
2008,09,30,07,17,8.80
2008,09,30,07,18,8.80
2008,09,30,07,19,8.80
2008,09,30,07,20,8.80
2008,09,30,07,21,8.90
2008,09,30,07,22,8.90
2008,09,30,07,23,8.90
2008,09,30,07,24,8.90
2008,09,30,07,25,8.90
2008,09,30,07,26,8.90
2008,09,30,07,27,8.90
2008,09,30,07,28,8.90
2008,09,30,07,29,8.90
2008,09,30,07,30,8.90
2008,09,30,07,31,8.90
2008,09,30,07,32,8.90
2008,09,30,07,33,8.90
2008,09,30,07,34,8.90
2008,09,30,07,35,8.90
2008,09,30,07,36,8.90
2008,09,30,07,37,8.90
2008,09,30,07,38,8.90
2008,09,30,07,39,8.90
2008,09,30,07,40,8.90
2008,09,30,07,41,8.90
2008,09,30,07,42,8.90
2008,09,30,07,43,8.90
2008,09,30,07,44,8.90
2008,09,30,07,45,9.00
2008,09,30,07,46,9.00
2008,09,30,07,47,9.10
2008,09,30,07,48,9.10
2008,09,30,07,49,9.10
2008,09,30,07,50,9.10
2008,09,30,07,51,9.20
2008,09,30,07,52,9.20
2008,09,30,07,53,9.20
2008,09,30,07,54,9.30
2008,09,30,07,55,9.30
2008,09,30,07,56,9.40
2008,09,30,07,57,9.40
2008,09,30,07,58,9.40
2008,09,30,07,59,9.50
2008,09,30,08,00,9.50
2008,09,30,08,01,9.60
2008,09,30,08,02,9.60
2008,09,30,08,03,9.70
2008,09,30,08,04,9.80
2008,09,30,08,05,9.80
2008,09,30,08,06,9.90
2008,09,30,08,07,9.90
2008,09,30,08,08,10.00
2008,09,30,08,09,10.10
2008,09,30,08,10,10.20
2008,09,30,08,11,10.30
2008,09,30,08,12,10.50
2008,09,30,08,13,10.60
2008,09,30,08,14,10.70
2008,09,30,08,15,10.80
2008,09,30,08,16,10.90
2008,09,30,08,17,11.10
2008,09,30,08,18,11.20
2008,09,30,08,19,11.30
2008,09,30,08,20,11.50
2008,09,30,08,21,11.60
2008,09,30,08,22,11.80
2008,09,30,08,23,11.90
2008,09,30,08,24,12.10
2008,09,30,08,25,12.20
2008,09,30,08,26,12.30
2008,09,30,08,27,12.40
2008,09,30,08,28,12.50
2008,09,30,08,29,12.60
2008,09,30,08,30,12.70
2008,09,30,08,31,12.80
2008,09,30,08,32,12.90
2008,09,30,08,33,13.00
2008,09,30,08,34,13.00
2008,09,30,08,35,13.10
2008,09,30,08,36,13.20
2008,09,30,08,37,13.30
2008,09,30,08,38,13.40
2008,09,30,08,39,13.40
2008,09,30,08,40,13.40
2008,09,30,08,41,13.50
2008,09,30,08,42,13.60
2008,09,30,08,43,13.60
2008,09,30,08,44,13.70
2008,09,30,08,45,13.80
2008,09,30,08,46,13.80
2008,09,30,08,47,13.80
2008,09,30,08,48,13.90
2008,09,30,08,49,13.90
2008,09,30,08,50,14.00
2008,09,30,08,51,14.10
2008,09,30,08,52,14.20
2008,09,30,08,53,14.30
2008,09,30,08,54,14.30
2008,09,30,08,55,14.30
2008,09,30,08,56,14.40
2008,09,30,08,57,14.40
2008,09,30,08,58,14.40
2008,09,30,08,59,14.40
2008,09,30,09,00,14.40
2008,09,30,09,01,14.40
2008,09,30,09,02,14.40
2008,09,30,09,03,14.30
2008,09,30,09,04,14.30
2008,09,30,09,05,14.30
2008,09,30,09,06,14.30
2008,09,30,09,07,14.30
2008,09,30,09,08,14.30
2008,09,30,09,09,14.30
2008,09,30,09,10,14.30
2008,09,30,09,11,14.30
2008,09,30,09,12,14.30
2008,09,30,09,13,14.30
2008,09,30,09,14,14.20
2008,09,30,09,15,14.20
2008,09,30,09,16,14.30
2008,09,30,09,17,14.30
2008,09,30,09,18,14.30
2008,09,30,09,19,14.30
2008,09,30,09,20,14.40
2008,09,30,09,21,14.50
2008,09,30,09,22,14.50
2008,09,30,09,23,14.70
2008,09,30,09,24,14.80
2008,09,30,09,25,15.00
2008,09,30,09,26,15.00
2008,09,30,09,27,15.00
2008,09,30,09,28,15.10
2008,09,30,09,29,15.30
2008,09,30,09,30,15.40
2008,09,30,09,31,15.50
2008,09,30,09,32,15.60
2008,09,30,09,33,15.60
2008,09,30,09,34,15.60
2008,09,30,09,35,15.60
2008,09,30,09,36,15.60
2008,09,30,09,37,15.60
2008,09,30,09,38,15.70
2008,09,30,09,39,15.70
2008,09,30,09,40,15.70
2008,09,30,09,41,15.70
2008,09,30,09,42,15.80
2008,09,30,09,43,15.80
2008,09,30,09,44,15.90
2008,09,30,09,45,16.00
2008,09,30,09,46,16.20
2008,09,30,09,47,16.30
2008,09,30,09,48,16.50
2008,09,30,09,49,16.60
2008,09,30,09,50,16.70
2008,09,30,09,51,16.80
2008,09,30,09,52,16.80
2008,09,30,09,53,16.90
2008,09,30,09,54,16.90
2008,09,30,09,55,16.90
2008,09,30,09,56,17.00
2008,09,30,09,57,17.10
2008,09,30,09,58,17.10
2008,09,30,09,59,17.20
2008,09,30,10,00,17.30
2008,09,30,10,01,17.40
2008,09,30,10,02,17.40
2008,09,30,10,03,17.40
2008,09,30,10,04,17.50
2008,09,30,10,05,17.50
2008,09,30,10,06,17.50
2008,09,30,10,07,17.50
2008,09,30,10,08,17.40
2008,09,30,10,09,17.30
2008,09,30,10,10,17.30
2008,09,30,10,11,17.20
2008,09,30,10,12,17.20
2008,09,30,10,13,17.30
2008,09,30,10,14,17.30
2008,09,30,10,15,17.30
2008,09,30,10,16,17.30
2008,09,30,10,17,17.40
2008,09,30,10,18,17.40
2008,09,30,10,19,17.40
2008,09,30,10,20,17.50
2008,09,30,10,21,17.50
2008,09,30,10,22,17.60
2008,09,30,10,23,17.70
2008,09,30,10,24,17.60
2008,09,30,10,25,17.60
2008,09,30,10,26,17.70
2008,09,30,10,27,17.70
2008,09,30,10,28,17.70
2008,09,30,10,29,17.70
2008,09,30,10,30,17.70
2008,09,30,10,31,17.60
2008,09,30,10,32,17.50
2008,09,30,10,33,17.40
2008,09,30,10,34,17.40
2008,09,30,10,35,17.30
2008,09,30,10,36,17.30
2008,09,30,10,37,17.20
2008,09,30,10,38,17.20
2008,09,30,10,39,17.10
2008,09,30,10,40,17.00
2008,09,30,10,41,16.80
2008,09,30,10,42,16.70
2008,09,30,10,43,16.50
2008,09,30,10,44,16.30
2008,09,30,10,45,16.30
2008,09,30,10,46,16.20
2008,09,30,10,47,16.20
2008,09,30,10,48,16.20
2008,09,30,10,49,16.20
2008,09,30,10,50,16.20
2008,09,30,10,51,16.30
2008,09,30,10,52,16.30
2008,09,30,10,53,16.20
2008,09,30,10,54,16.20
2008,09,30,10,55,16.20
2008,09,30,10,56,16.20
2008,09,30,10,57,16.10
2008,09,30,10,58,16.10
2008,09,30,10,59,16.10
2008,09,30,11,00,16.10
2008,09,30,11,01,16.00
2008,09,30,11,02,16.00
2008,09,30,11,03,16.00
2008,09,30,11,04,16.00
2008,09,30,11,05,16.00
2008,09,30,11,06,16.10
2008,09,30,11,07,16.10
2008,09,30,11,08,16.10
2008,09,30,11,09,16.10
2008,09,30,11,10,16.10
2008,09,30,11,11,16.20
2008,09,30,11,12,16.20
2008,09,30,11,13,16.30
2008,09,30,11,14,16.30
2008,09,30,11,15,16.40
2008,09,30,11,16,16.40
2008,09,30,11,17,16.40
2008,09,30,11,18,16.40
2008,09,30,11,19,16.40
2008,09,30,11,20,16.40
2008,09,30,11,21,16.40
2008,09,30,11,22,16.40
2008,09,30,11,23,16.40
2008,09,30,11,24,16.40
2008,09,30,11,25,16.40
2008,09,30,11,26,16.40
2008,09,30,11,27,16.30
2008,09,30,11,28,16.30
2008,09,30,11,29,16.20
2008,09,30,11,30,16.20
2008,09,30,11,31,16.20
2008,09,30,11,32,16.10
2008,09,30,11,33,16.10
2008,09,30,11,34,16.10
2008,09,30,11,35,16.00
2008,09,30,11,36,16.00
2008,09,30,11,37,16.00
2008,09,30,11,38,16.00
2008,09,30,11,39,15.90
2008,09,30,11,40,15.90
2008,09,30,11,41,15.80
2008,09,30,11,42,15.80
2008,09,30,11,43,15.80
2008,09,30,11,44,15.80
2008,09,30,11,45,15.80
2008,09,30,11,46,15.80
2008,09,30,11,47,15.80
2008,09,30,11,48,15.80
2008,09,30,11,49,15.80
2008,09,30,11,50,15.90
2008,09,30,11,51,15.90
2008,09,30,11,52,15.90
2008,09,30,11,53,15.90
2008,09,30,11,54,15.90
2008,09,30,11,55,15.90
2008,09,30,11,56,16.00
2008,09,30,11,57,16.00
2008,09,30,11,58,16.10
2008,09,30,11,59,16.10
2008,09,30,12,00,16.20
2008,09,30,12,01,16.20
2008,09,30,12,02,16.30
2008,09,30,12,03,16.30
2008,09,30,12,04,16.40
2008,09,30,12,05,16.60
2008,09,30,12,06,16.70
2008,09,30,12,07,16.80
2008,09,30,12,08,16.90
2008,09,30,12,09,17.00
2008,09,30,12,10,17.10
2008,09,30,12,11,17.20
2008,09,30,12,12,17.30
2008,09,30,12,13,17.30
2008,09,30,12,14,17.40
2008,09,30,12,15,17.40
2008,09,30,12,16,17.40
2008,09,30,12,17,17.30
2008,09,30,12,18,17.30
2008,09,30,12,19,17.30
2008,09,30,12,20,17.40
2008,09,30,12,21,17.40
2008,09,30,12,22,17.40
2008,09,30,12,23,17.30
2008,09,30,12,24,17.30
2008,09,30,12,25,17.30
2008,09,30,12,26,17.20
2008,09,30,12,27,17.20
2008,09,30,12,28,17.20
2008,09,30,12,29,17.30
2008,09,30,12,30,17.30
2008,09,30,12,31,17.30
2008,09,30,12,32,17.40
2008,09,30,12,33,17.50
2008,09,30,12,34,17.60
2008,09,30,12,35,17.60
2008,09,30,12,36,17.60
2008,09,30,12,37,17.50
2008,09,30,12,38,17.50
2008,09,30,12,39,17.40
2008,09,30,12,40,17.40
2008,09,30,12,41,17.40
2008,09,30,12,42,17.40
2008,09,30,12,43,17.40
2008,09,30,12,44,17.40
2008,09,30,12,45,17.40
2008,09,30,12,46,17.50
2008,09,30,12,47,17.60
2008,09,30,12,48,17.60
2008,09,30,12,49,17.70
2008,09,30,12,50,17.70
2008,09,30,12,51,17.70
2008,09,30,12,52,17.70
2008,09,30,12,53,17.70
2008,09,30,12,54,17.70
2008,09,30,12,55,17.70
2008,09,30,12,56,17.60
2008,09,30,12,57,17.60
2008,09,30,12,58,17.70
2008,09,30,12,59,17.70
2008,09,30,13,00,17.70
2008,09,30,13,01,17.70
2008,09,30,13,02,17.80
2008,09,30,13,03,17.80
2008,09,30,13,04,17.80
2008,09,30,13,05,17.80
2008,09,30,13,06,17.90
2008,09,30,13,07,17.90
2008,09,30,13,08,17.90
2008,09,30,13,09,18.00
2008,09,30,13,10,18.10
2008,09,30,13,11,18.20
2008,09,30,13,12,18.20
2008,09,30,13,13,18.30
2008,09,30,13,14,18.30
2008,09,30,13,15,18.30
2008,09,30,13,16,18.30
2008,09,30,13,17,18.30
2008,09,30,13,18,18.40
2008,09,30,13,19,18.40
2008,09,30,13,20,18.40
2008,09,30,13,21,18.40
2008,09,30,13,22,18.40
2008,09,30,13,23,18.50
2008,09,30,13,24,18.50
2008,09,30,13,25,18.40
2008,09,30,13,26,18.40
2008,09,30,13,27,18.30
2008,09,30,13,28,18.30
2008,09,30,13,29,18.20
2008,09,30,13,30,18.10
2008,09,30,13,31,18.00
2008,09,30,13,32,17.90
2008,09,30,13,33,17.80
2008,09,30,13,34,17.80
2008,09,30,13,35,17.70
2008,09,30,13,36,17.80
2008,09,30,13,37,17.80
2008,09,30,13,38,17.80
2008,09,30,13,39,17.90
2008,09,30,13,40,17.90
2008,09,30,13,41,17.90
2008,09,30,13,42,17.90
2008,09,30,13,43,17.90
2008,09,30,13,44,17.90
2008,09,30,13,45,17.80
2008,09,30,13,46,17.70
2008,09,30,13,47,17.70
2008,09,30,13,48,17.80
2008,09,30,13,49,17.70
2008,09,30,13,50,17.70
2008,09,30,13,51,17.80
2008,09,30,13,52,17.80
2008,09,30,13,53,17.80
2008,09,30,13,54,17.90
2008,09,30,13,55,17.90
2008,09,30,13,56,17.90
2008,09,30,13,57,17.90
2008,09,30,13,58,17.90
2008,09,30,13,59,17.90
2008,09,30,14,00,17.90
2008,09,30,14,01,17.90
2008,09,30,14,02,17.90
2008,09,30,14,03,18.00
2008,09,30,14,04,18.00
2008,09,30,14,05,18.10
2008,09,30,14,06,18.20
2008,09,30,14,07,18.20
2008,09,30,14,08,18.30
2008,09,30,14,09,18.40
2008,09,30,14,10,18.40
2008,09,30,14,11,18.50
2008,09,30,14,12,18.60
2008,09,30,14,13,18.60
2008,09,30,14,14,18.60
2008,09,30,14,15,18.60
2008,09,30,14,16,18.60
2008,09,30,14,17,18.50
2008,09,30,14,18,18.50
2008,09,30,14,19,18.50
2008,09,30,14,20,18.50
2008,09,30,14,21,18.40
2008,09,30,14,22,18.30
2008,09,30,14,23,18.20
2008,09,30,14,24,18.10
2008,09,30,14,25,18.00
2008,09,30,14,26,18.00
2008,09,30,14,27,17.90
2008,09,30,14,28,18.00
2008,09,30,14,29,18.00
2008,09,30,14,30,18.10
2008,09,30,14,31,18.10
2008,09,30,14,32,18.10
2008,09,30,14,33,18.10
2008,09,30,14,34,18.10
2008,09,30,14,35,18.10
2008,09,30,14,36,18.10
2008,09,30,14,37,18.10
2008,09,30,14,38,18.10
2008,09,30,14,39,18.20
2008,09,30,14,40,18.20
2008,09,30,14,41,18.20
2008,09,30,14,42,18.20
2008,09,30,14,43,18.20
2008,09,30,14,44,18.20
2008,09,30,14,45,18.20
2008,09,30,14,46,18.20
2008,09,30,14,47,18.20
2008,09,30,14,48,18.30
2008,09,30,14,49,18.30
2008,09,30,14,50,18.40
2008,09,30,14,51,18.40
2008,09,30,14,52,18.50
2008,09,30,14,53,18.60
2008,09,30,14,54,18.60
2008,09,30,14,55,18.60
2008,09,30,14,56,18.50
2008,09,30,14,57,18.60
2008,09,30,14,58,18.60
2008,09,30,14,59,18.70
2008,09,30,15,00,18.70
2008,09,30,15,01,18.70
2008,09,30,15,02,18.60
2008,09,30,15,03,18.70
2008,09,30,15,04,18.60
2008,09,30,15,05,18.70
2008,09,30,15,06,18.70
2008,09,30,15,07,18.70
2008,09,30,15,08,18.70
2008,09,30,15,09,18.80
2008,09,30,15,10,18.80
2008,09,30,15,11,18.80
2008,09,30,15,12,18.80
2008,09,30,15,13,18.80
2008,09,30,15,14,18.90
2008,09,30,15,15,19.00
2008,09,30,15,16,19.10
2008,09,30,15,17,19.20
2008,09,30,15,18,19.20
2008,09,30,15,19,19.30
2008,09,30,15,20,19.30
2008,09,30,15,21,19.30
2008,09,30,15,22,19.30
2008,09,30,15,23,19.30
2008,09,30,15,24,19.30
2008,09,30,15,25,19.30
2008,09,30,15,26,19.20
2008,09,30,15,27,19.20
2008,09,30,15,28,19.20
2008,09,30,15,29,19.20
2008,09,30,15,30,19.20
2008,09,30,15,31,19.10
2008,09,30,15,32,19.10
2008,09,30,15,33,19.10
2008,09,30,15,34,19.10
2008,09,30,15,35,19.10
2008,09,30,15,36,19.10
2008,09,30,15,37,19.10
2008,09,30,15,38,19.00
2008,09,30,15,39,19.00
2008,09,30,15,40,19.00
2008,09,30,15,41,18.90
2008,09,30,15,42,18.90
2008,09,30,15,43,18.90
2008,09,30,15,44,18.90
2008,09,30,15,45,18.80
2008,09,30,15,46,18.80
2008,09,30,15,47,18.80
2008,09,30,15,48,18.80
2008,09,30,15,49,18.80
2008,09,30,15,50,18.80
2008,09,30,15,51,18.80
2008,09,30,15,52,18.70
2008,09,30,15,53,18.70
2008,09,30,15,54,18.70
2008,09,30,15,55,18.80
2008,09,30,15,56,18.80
2008,09,30,15,57,18.70
2008,09,30,15,58,18.70
2008,09,30,15,59,18.70
2008,09,30,16,00,18.70
2008,09,30,16,01,18.80
2008,09,30,16,02,18.80
2008,09,30,16,03,18.80
2008,09,30,16,04,18.80
2008,09,30,16,05,18.80
2008,09,30,16,06,18.80
2008,09,30,16,07,18.80
2008,09,30,16,08,18.80
2008,09,30,16,09,18.80
2008,09,30,16,10,18.80
2008,09,30,16,11,18.80
2008,09,30,16,12,18.80
2008,09,30,16,13,18.80
2008,09,30,16,14,18.80
2008,09,30,16,15,18.80
2008,09,30,16,16,18.80
2008,09,30,16,17,18.80
2008,09,30,16,18,18.80
2008,09,30,16,19,18.80
2008,09,30,16,20,18.80
2008,09,30,16,21,18.80
2008,09,30,16,22,18.80
2008,09,30,16,23,18.80
2008,09,30,16,24,18.70
2008,09,30,16,25,18.60
2008,09,30,16,26,18.50
2008,09,30,16,27,18.30
2008,09,30,16,28,18.10
2008,09,30,16,29,18.00
2008,09,30,16,30,17.80
2008,09,30,16,31,17.60
2008,09,30,16,32,17.40
2008,09,30,16,33,17.10
2008,09,30,16,34,16.90
2008,09,30,16,35,16.70
2008,09,30,16,36,16.60
2008,09,30,16,37,16.40
2008,09,30,16,38,16.40
2008,09,30,16,39,16.30
2008,09,30,16,40,16.20
2008,09,30,16,41,16.20
2008,09,30,16,42,16.20
2008,09,30,16,43,16.20
2008,09,30,16,44,16.20
2008,09,30,16,45,16.20
2008,09,30,16,46,16.20
2008,09,30,16,47,16.20
2008,09,30,16,48,16.20
2008,09,30,16,49,16.20
2008,09,30,16,50,16.30
2008,09,30,16,51,16.30
2008,09,30,16,52,16.30
2008,09,30,16,53,16.40
2008,09,30,16,54,16.40
2008,09,30,16,55,16.50
2008,09,30,16,56,16.60
2008,09,30,16,57,16.60
2008,09,30,16,58,16.70
2008,09,30,16,59,16.80
2008,09,30,17,00,17.00
2008,09,30,17,01,17.10
2008,09,30,17,02,17.20
2008,09,30,17,03,17.30
2008,09,30,17,04,17.30
2008,09,30,17,05,17.50
2008,09,30,17,06,17.50
2008,09,30,17,07,17.60
2008,09,30,17,08,17.70
2008,09,30,17,09,17.80
2008,09,30,17,10,17.80
2008,09,30,17,11,17.80
2008,09,30,17,12,17.80
2008,09,30,17,13,17.80
2008,09,30,17,14,17.90
2008,09,30,17,15,17.90
2008,09,30,17,16,17.90
2008,09,30,17,17,17.90
2008,09,30,17,18,17.90
2008,09,30,17,19,17.90
2008,09,30,17,20,17.90
2008,09,30,17,21,17.90
2008,09,30,17,22,17.90
2008,09,30,17,23,17.90
2008,09,30,17,24,17.90
2008,09,30,17,25,17.90
2008,09,30,17,26,17.90
2008,09,30,17,27,17.80
2008,09,30,17,28,17.80
2008,09,30,17,29,17.80
2008,09,30,17,30,17.80
2008,09,30,17,31,17.70
2008,09,30,17,32,17.70
2008,09,30,17,33,17.70